Location: Alafon
(8.4500°N, 4.2333°E)
Time: 09:45:08
(UTC+00:00)

A-11 Canister half - Pass Details

Date: 08 August 2021
Orbit: 1515 x 1685 km, 47.2° (Epoch: 21 September)

Event Time Altitude Azimuth Distance (km) Brightness Sun altitude
Rises 01:05:01 0° 290° (WNW) 4,929 - -59.0°
Reaches altitude 10° 01:09:20 10° 275° (W) 3,932 - -58.4°
Maximum altitude 01:16:10 21° 232° (SW) 3,142 - -57.3°
Drops below altitude 10° 01:22:57 10° 188° (S) 3,865 - -56.1°
Sets 01:27:13 0° 172° (S) 4,822 - -55.4°
